Preview of NWS' New Version of Forecast
This preview is not operational and should not be used for support decisions.

Regional Weather Roundup (RWR)

Issued by Gray - Portland, ME (GYX)

                            
906 
ASUS41 KGYX 211210
RWRGYX
WEATHER ROUNDUP FOR MAINE AND NEW HAMPSHIRE
NATIONAL WEATHER SERVICE GRAY ME
800 AM EDT SAT APR 21 2018

MEZ002-005-006-010-012-015-018-020-021-024-026-027-029-211300-
MAINE
  
CITY           SKY/WX    TMP DP  RH WIND       PRES   REMARKS
PORTLAND       FAIR      42  27  55 NW9       30.25S                  
6HR MIN TEMP:  31; 6HR MAX TEMP:  42;                                

SANFORD        FAIR      42  26  53 NW7       30.27R                  
BAR HARBOR     FAIR      41  31  67 NW7       30.18S                  
WISCASSET      PTSUNNY   42  28  57 VRB5      30.24S                  
6HR MIN TEMP:  29; 6HR MAX TEMP:  42;                                

ROCKLAND       FAIR      40  29  64 W8        30.21S                  
FRYEBURG       PTSUNNY   42  30  62 CALM      30.25R                  
6HR MIN TEMP:  27; 6HR MAX TEMP:  42;                                

LEWISTONAUBURN FAIR      40  26  57 NW12      30.24S                  
AUGUSTA        FAIR      41  27  57 NW8       30.22R                  
6HR MIN TEMP:  34; 6HR MAX TEMP:  41;                                

WATERVILLE     FAIR      41  28  60 NW8       30.19R                  
BANGOR         FAIR      41  30  65 NW13      30.19R                  
6HR MIN TEMP:  35; 6HR MAX TEMP:  41;                                

GREENVILLE       N/A     34  27  75 NW16      30.12S                  
6HR MIN TEMP:  31; 6HR MAX TEMP:  34;                                

MILLINOCKET    FAIR      39  28  64 NW10      30.17S                  
6HR MIN TEMP:  34; 6HR MAX TEMP:  39;                                

HOULTON        FAIR      37  26  64 NW10      30.11S                  
6HR MIN TEMP:  32; 6HR MAX TEMP:  37;                                

PRESQUE ISLE   FAIR      36  22  56 NW9       30.13R                  
6HR MIN TEMP:  31; 6HR MAX TEMP:  36;                                

FRENCHVILLE    FAIR      34  19  54 NW16      30.10R                  
6HR MIN TEMP:  31; 6HR MAX TEMP:  34;                                

CARIBOU        FAIR      34  23  64 NW9       30.11R                  
6HR MIN TEMP:  31; 6HR MAX TEMP:  35;                                

$$

NHZ002-005-008-009-011-012-014-211300-
NEW HAMPSHIRE
  
CITY           SKY/WX    TMP DP  RH WIND       PRES   REMARKS
PORTSMOUTH     MOSUNNY   43  26  51 W13       30.26R                  
ROCHESTER      FAIR      42  28  57 W5        30.27R                  
6HR MIN TEMP:  34; 6HR MAX TEMP:  42;                                

NASHUA         FAIR      42  27  55 NW12      30.31R                  
MANCHESTER     FAIR      42  27  55 CALM      30.29R                  
6HR MIN TEMP:  34; 6HR MAX TEMP:  42;                                

CONCORD        FAIR      41  28  60 CALM      30.29S                  
6HR MIN TEMP:  29; 6HR MAX TEMP:  41;                                

LACONIA        FAIR      40  26  57 W7        30.28R                  
PLYMOUTH       FAIR      40  26  56 CALM      30.27S                  
BERLIN         CLOUDY    38  25  59 VRB7      30.23R                  
6HR MIN TEMP:  29; 6HR MAX TEMP:  38;                                

WHITEFIELD     CLOUDY    35  30  82 CALM      30.26R                  
6HR MIN TEMP:  28; 6HR MAX TEMP:  35;                                

JAFFREY        FAIR      39  26  59 NW6       30.29R                  
6HR MIN TEMP:  33; 6HR MAX TEMP:  39;                                

KEENE          FAIR      36  29  75 CALM      30.33R                  
LEBANON        FAIR      38  27  64 CALM      30.29S                  
6HR MIN TEMP:  28; 6HR MAX TEMP:  38;                                

MT WASHINGTON  BLWGSNOW  12  12 100 NW53G64     N/A  VSB 1/16WCI -14  
6HR MIN TEMP:  12; 6HR MAX TEMP:  13; 6HR PCP:  0.10;                

$$

VTZ005-007-008-211300-
VERMONT
  
CITY           SKY/WX    TMP DP  RH WIND       PRES   REMARKS
ST JOHNSBURY     N/A     35  29  78 MISG      30.27R                  
MONTPELIER     FAIR      36  26  67 NW10      30.31S                  
BURLINGTON     FAIR      40  26  57 CALM      30.33R                  
$$

MAZ007-012-024-CTZ003-RIZ002-NYZ038-NYZ072-211300-
SOUTHERN NEW ENGLAND AND NY
  
CITY           SKY/WX    TMP DP  RH WIND       PRES   REMARKS
BOSTON         FAIR      43  27  53 NW15      30.31R                  
WORCESTER      FAIR      35  25  66 W12       30.30R                  
NANTUCKET      FAIR      43  31  62 NW17      30.30R                  
PROVIDENCE     FAIR      43  28  55 W10       30.34R                  
HARTFORD       FAIR      40  27  59 S5        30.36R                  
ALBANY         FAIR      39  26  59 NW7       30.38R                  
NEW YORK CITY  FAIR      43  26  51 NW15      30.41R                  
$$

ANZ081-ANZ082-ANZ150-NHZ014-MEZ023>029-211300-
COASTAL MARINE OBSERVATIONS
  
STATION/POSITION TIME  TEMP    WIND        PRES    WAVE
                       AIR SEA DIR/SP/G            HT/PER
                 (UTC) (F)     (DEG/KT/KT) (MB)    (FT/S)
MOUNT DESERT ROC 1200   39     300/ 16/ 18 1022.3R
MATINICUS ROCK   1100   40     310/ 18/ 20 1022.1R
ISLE OF SHOALS   1100   39     290/ 13/ 15 1024.3R
JEFFREYS LEDGE   1136      41                N/A     3/ 4
CASHES LEDGE BUO 1150   43 40              1023.5R   3/ 5
$$

.............KEY..............
   WCI - WIND CHILL
   TC  - TEMPERATURE IN CELSIUS
   VSB - VISIBILITY IN MILES
   HX  - HEAT INDEX
   FAIR- INDICATES FEW OR NO CLOUDS BELOW 12,000 FT, WITH NO 
         SIGNIFICANT WEATHER AND/OR OBSTRUCTIONS TO VISIBILITY.